TimeEDT,TemperatureF,Dew PointF,Humidity,Sea Level PressureIn,VisibilityMPH,Wind Direction,Wind SpeedMPH,Gust SpeedMPH,PrecipitationIn,Events,Conditions,WindDirDegrees,DateUTC
6:55 AM,39.4,37.8,94,29.50,10.0,SSW,8.1,-,N/A,,Overcast,200,2012-10-31 10:55:00
7:05 AM,39.2,37.4,93,29.51,10.0,South,5.8,-,N/A,,Overcast,190,2012-10-31 11:05:00
7:15 AM,39.2,37.4,93,29.51,10.0,SSW,5.8,-,N/A,,Overcast,200,2012-10-31 11:15:00
7:38 AM,39.2,37.4,93,29.51,10.0,SSW,5.8,-,N/A,,Overcast,210,2012-10-31 11:38:00
7:48 AM,39.2,37.4,93,29.52,10.0,SW,6.9,-,N/A,,Overcast,220,2012-10-31 11:48:00
7:55 AM,39.6,37.9,94,29.52,10.0,SSW,6.9,-,N/A,,Overcast,210,2012-10-31 11:55:00
7:56 AM,39.2,37.4,93,29.52,10.0,North,-9999.0,-,N/A,,Overcast,0,2012-10-31 11:56:00
8:14 AM,39.2,37.4,93,29.52,10.0,SSW,6.9,-,N/A,,Overcast,210,2012-10-31 12:14:00
8:19 AM,39.2,37.4,93,29.52,10.0,SSW,5.8,-,N/A,,Overcast,210,2012-10-31 12:19:00
8:23 AM,39.2,37.4,93,29.52,10.0,SSW,5.8,-,N/A,,Overcast,210,2012-10-31 12:23:00
8:25 AM,39.2,37.4,93,29.52,10.0,SSW,6.9,-,N/A,,Overcast,210,2012-10-31 12:25:00
8:46 AM,41.0,39.2,93,29.52,10.0,SW,5.8,-,N/A,Rain,Light Rain,220,2012-10-31 12:46:00
8:55 AM,40.1,38.1,93,29.52,10.0,SW,6.9,-,0.01,Rain,Light Rain,230,2012-10-31 12:55:00
9:24 AM,41.0,37.4,87,29.53,10.0,Variable,5.8,-,N/A,,Light Drizzle,0,2012-10-31 13:24:00
9:28 AM,41.0,39.2,93,29.54,10.0,SW,4.6,-,N/A,,Overcast,230,2012-10-31 13:28:00
9:31 AM,41.0,39.2,93,29.54,10.0,SW,6.9,-,N/A,,Overcast,230,2012-10-31 13:31:00
9:32 AM,41.0,37.4,87,29.54,10.0,SW,6.9,-,N/A,,Overcast,230,2012-10-31 13:32:00
9:38 AM,41.0,39.2,93,29.53,10.0,SW,5.8,-,N/A,Rain,Light Rain,220,2012-10-31 13:38:00
9:55 AM,40.6,38.3,91,29.53,10.0,SW,4.6,-,0.00,,Light Drizzle,220,2012-10-31 13:55:00
10:22 AM,41.0,37.4,87,29.54,10.0,SW,8.1,-,N/A,,Light Drizzle,230,2012-10-31 14:22:00
10:23 AM,41.0,39.2,93,29.54,10.0,SW,8.1,-,N/A,,Light Drizzle,230,2012-10-31 14:23:00
10:55 AM,41.9,39.0,90,29.54,10.0,SW,8.1,-,0.01,,Light Drizzle,230,2012-10-31 14:55:00
10:56 AM,41.0,39.2,93,29.54,10.0,SW,6.9,-,N/A,,Light Drizzle,230,2012-10-31 14:56:00
11:14 AM,42.8,39.2,87,29.54,10.0,SW,8.1,-,N/A,,Light Drizzle,220,2012-10-31 15:14:00
11:37 AM,41.0,39.2,93,29.55,10.0,SW,5.8,-,N/A,,Light Drizzle,220,2012-10-31 15:37:00
11:55 AM,41.7,38.8,89,29.55,9.0,SW,6.9,-,0.01,Rain,Light Rain,220,2012-10-31 15:55:00
12:21 PM,41.0,39.2,93,29.55,6.0,SW,13.8,-,N/A,Rain,Light Rain,220,2012-10-31 16:21:00
12:30 PM,41.0,39.2,93,29.55,10.0,WSW,13.8,-,N/A,Rain,Light Rain,240,2012-10-31 16:30:00
12:31 PM,41.0,39.2,93,29.55,10.0,SW,13.8,-,N/A,Rain,Light Rain,230,2012-10-31 16:31:00
12:35 PM,41.0,37.4,87,29.55,10.0,WSW,11.5,-,N/A,Rain,Light Rain,240,2012-10-31 16:35:00
12:55 PM,42.8,39.4,88,29.55,10.0,WSW,8.1,-,0.02,,Light Drizzle,240,2012-10-31 16:55:00
1:08 PM,42.8,39.2,87,29.55,10.0,SSW,9.2,-,N/A,,Light Drizzle,210,2012-10-31 17:08:00
1:12 PM,41.0,39.2,93,29.55,7.0,SW,6.9,-,N/A,Rain,Light Rain,220,2012-10-31 17:12:00
1:54 PM,42.8,39.2,87,29.55,10.0,SW,5.8,-,N/A,,Light Drizzle,230,2012-10-31 17:54:00
1:55 PM,42.4,38.3,85,29.55,10.0,SW,6.9,-,0.01,,Light Drizzle,230,2012-10-31 17:55:00
2:09 PM,42.8,39.2,87,29.55,10.0,SW,4.6,-,N/A,,Overcast,220,2012-10-31 18:09:00
2:42 PM,42.8,39.2,87,29.55,10.0,SW,5.8,-,N/A,,Light Drizzle,230,2012-10-31 18:42:00
2:55 PM,43.0,38.7,85,29.55,10.0,West,3.5,-,0.00,,Light Drizzle,260,2012-10-31 18:55:00
2:56 PM,42.8,39.2,87,29.55,10.0,Calm,Calm,-,N/A,,Overcast,0,2012-10-31 18:56:00
3:02 PM,42.8,39.2,87,29.55,10.0,Calm,Calm,-,N/A,,Overcast,0,2012-10-31 19:02:00
3:51 PM,44.6,39.2,81,29.56,10.0,WSW,5.8,-,N/A,,Light Drizzle,240,2012-10-31 19:51:00
3:55 PM,43.9,39.2,84,29.56,10.0,Variable,4.6,-,0.00,,Light Drizzle,0,2012-10-31 19:55:00
4:02 PM,44.6,39.2,81,29.56,10.0,WSW,5.8,-,N/A,,Overcast,240,2012-10-31 20:02:00
4:21 PM,44.6,37.4,76,29.56,10.0,SW,6.9,-,N/A,,Overcast,230,2012-10-31 20:21:00
4:38 PM,44.6,37.4,76,29.57,10.0,WSW,8.1,-,N/A,,Overcast,240,2012-10-31 20:38:00
4:42 PM,44.6,37.4,76,29.57,10.0,SW,9.2,-,N/A,,Overcast,230,2012-10-31 20:42:00
4:43 PM,44.6,37.4,76,29.57,10.0,SW,8.1,-,N/A,,Overcast,230,2012-10-31 20:43:00
4:55 PM,43.9,36.7,76,29.56,10.0,WSW,8.1,-,0.00,,Overcast,250,2012-10-31 20:55:00
5:55 PM,43.7,37.4,78,29.57,10.0,West,4.6,-,N/A,,Overcast,260,2012-10-31 21:55:00
6:55 PM,42.6,39.6,89,29.60,10.0,Calm,Calm,-,N/A,,Overcast,0,2012-10-31 22:55:00
7:55 PM,43.3,38.8,84,29.60,10.0,Calm,Calm,-,N/A,,Overcast,0,2012-10-31 23:55:00
8:55 PM,42.8,39.7,89,29.60,10.0,Calm,Calm,-,N/A,,Overcast,0,2012-11-01 00:55:00
9:12 PM,42.8,39.2,87,29.60,10.0,Calm,Calm,-,N/A,,Overcast,0,2012-11-01 01:12:00
9:21 PM,42.8,39.2,87,29.60,10.0,SSW,3.5,-,N/A,,Overcast,210,2012-11-01 01:21:00
9:55 PM,43.0,39.4,87,29.61,10.0,SW,3.5,-,0.00,,Overcast,230,2012-11-01 01:55:00
10:55 PM,42.4,39.2,88,29.61,10.0,SW,4.6,-,N/A,,Overcast,220,2012-11-01 02:55:00
11:55 PM,43.0,38.8,85,29.61,10.0,WSW,3.5,-,N/A,,Overcast,250,2012-11-01 03:55:00